CXA584 CYUL-MDSD

Flight info

Callsign CXA584
Flight time 4h 18m
Altitude 28000
Route FAWNS DCT BUGSY DCT ALB DCT SBJ DCT ENO DCT HURTS DCT CHIEZ Y291 JRDAN AR3 JAZZI Y307 NUCAR/N0490F270 L463 JUELE UL463 PTA UT20 KODIX KODIX2G
Aircraft B77L/H-SDE1E2E3FGHIJ2J3J4J5M1RWXY/LB1D1

Departure

Time 2026-05-05 03:58
Airport Montreal / Pierre Elliott Trudeau International Airport (CYUL)

Arrival

Time 2026-05-05 08:16
Airport Las Américas International Airport (MDSD)
Time Latitude Longitude Altitude Speed Heading
2026-05-05 02:55 45.45944 -73.75317 114 ft 0 kts 211°
2026-05-05 03:43 45.45945 -73.75317 114 ft 0 kts 211°
2026-05-05 03:43 45.45953 -73.75311 114 ft 2 kts 210°
2026-05-05 03:43 45.45966 -73.75298 114 ft 0 kts 210°
2026-05-05 03:43 45.45973 -73.75293 114 ft 2 kts 207°
2026-05-05 03:44 45.45987 -73.75285 114 ft 2 kts 192°
2026-05-05 03:44 45.46002 -73.75282 114 ft 2 kts 180°
2026-05-05 03:44 45.46022 -73.75286 114 ft 2 kts 163°
2026-05-05 03:44 45.46031 -73.75290 114 ft 2 kts 156°
2026-05-05 03:45 45.46044 -73.75301 114 ft 2 kts 144°
2026-05-05 03:45 45.46058 -73.75319 114 ft 1 kts 128°
2026-05-05 03:45 45.46061 -73.75324 114 ft 0 kts 126°
2026-05-05 03:45 45.46060 -73.75324 114 ft 0 kts 126°
2026-05-05 03:49 45.46052 -73.75308 113 ft 5 kts 127°
2026-05-05 03:49 45.46030 -73.75268 114 ft 9 kts 128°
2026-05-05 03:49 45.45993 -73.75110 114 ft 16 kts 94°
2026-05-05 03:50 45.45988 -73.74995 113 ft 17 kts 95°
2026-05-05 03:50 45.45964 -73.74765 114 ft 17 kts 99°
2026-05-05 03:50 45.45965 -73.74598 114 ft 17 kts 74°
2026-05-05 03:50 45.46000 -73.74438 114 ft 16 kts 78°
2026-05-05 03:51 45.45978 -73.74286 114 ft 15 kts 81°
2026-05-05 03:51 45.46017 -73.74204 114 ft 15 kts 40°
2026-05-05 03:51 45.46099 -73.74103 113 ft 15 kts 41°
2026-05-05 03:51 45.46181 -73.73998 114 ft 16 kts 47°
2026-05-05 03:52 45.46302 -73.73835 113 ft 20 kts 41°
2026-05-05 03:52 45.46376 -73.73737 114 ft 22 kts 43°
2026-05-05 03:52 45.46502 -73.73571 114 ft 27 kts 43°
2026-05-05 03:52 45.46639 -73.73393 117 ft 25 kts 41°
2026-05-05 03:53 45.46769 -73.73221 117 ft 25 kts 43°
2026-05-05 03:53 45.46904 -73.73043 118 ft 26 kts 43°
2026-05-05 03:53 45.47037 -73.72867 120 ft 26 kts 43°
2026-05-05 03:53 45.47220 -73.72626 123 ft 26 kts 41°
2026-05-05 03:54 45.47312 -73.72513 126 ft 26 kts 41°
2026-05-05 03:54 45.47445 -73.72341 130 ft 25 kts 42°
2026-05-05 03:54 45.47575 -73.72169 133 ft 25 kts 43°
2026-05-05 03:54 45.47743 -73.71938 136 ft 17 kts 39°
2026-05-05 03:55 45.47798 -73.71863 137 ft 11 kts 57°
2026-05-05 03:55 45.47816 -73.71756 138 ft 10 kts 102°
2026-05-05 03:55 45.47770 -73.71678 140 ft 11 kts 155°
2026-05-05 03:55 45.47713 -73.71641 140 ft 8 kts 153°
2026-05-05 03:56 45.47659 -73.71659 140 ft 0 kts 218°
2026-05-05 03:57 45.47440 -73.71922 135 ft 72 kts 222°
2026-05-05 03:57 45.47116 -73.72347 127 ft 113 kts 223°
2026-05-05 03:57 45.46111 -73.73668 137 ft 174 kts 223°
2026-05-05 03:57 45.45554 -73.74440 523 ft 167 kts 224°
2026-05-05 03:58 45.44723 -73.75639 992 ft 175 kts 224°
2026-05-05 03:58 45.43859 -73.76839 1556 ft 172 kts 224°
2026-05-05 03:58 45.43034 -73.77980 2111 ft 163 kts 224°
2026-05-05 03:58 45.42192 -73.79122 2282 ft 180 kts 224°
2026-05-05 03:59 45.41197 -73.80451 2257 ft 207 kts 223°
2026-05-05 03:59 45.40149 -73.81856 2703 ft 211 kts 224°
2026-05-05 03:59 45.39050 -73.83289 3179 ft 216 kts 224°
2026-05-05 03:59 45.37552 -73.85257 3673 ft 230 kts 219°
2026-05-05 04:00 45.36609 -73.86036 3954 ft 237 kts 209°
2026-05-05 04:00 45.34594 -73.87309 4671 ft 240 kts 208°
2026-05-05 04:00 45.33055 -73.88269 5194 ft 243 kts 208°
2026-05-05 04:00 45.32044 -73.88899 5565 ft 244 kts 208°
2026-05-05 04:01 45.30475 -73.89874 6103 ft 246 kts 208°
2026-05-05 04:01 45.28370 -73.91183 6768 ft 251 kts 208°
2026-05-05 04:01 45.26772 -73.92175 7268 ft 253 kts 208°
2026-05-05 04:01 45.25683 -73.92851 7583 ft 255 kts 208°
2026-05-05 04:02 45.24052 -73.93863 8100 ft 258 kts 208°
2026-05-05 04:02 45.22429 -73.94868 8594 ft 259 kts 208°
2026-05-05 04:02 45.20772 -73.95893 9087 ft 261 kts 208°
2026-05-05 04:02 45.18544 -73.97271 9687 ft 265 kts 208°
2026-05-05 04:03 45.16832 -73.98328 10113 ft 269 kts 208°
2026-05-05 04:03 45.15689 -73.99036 10220 ft 278 kts 208°
2026-05-05 04:03 45.13837 -74.00182 10295 ft 296 kts 208°
2026-05-05 04:03 45.11901 -74.01379 10395 ft 312 kts 208°
2026-05-05 04:04 45.09868 -74.02631 10495 ft 328 kts 208°
2026-05-05 04:04 45.07746 -74.03935 10601 ft 344 kts 207°
2026-05-05 04:04 45.05507 -74.05306 10806 ft 355 kts 207°
2026-05-05 04:04 45.03234 -74.06687 11278 ft 359 kts 207°
2026-05-05 04:05 45.00920 -74.08088 11828 ft 360 kts 207°
2026-05-05 04:05 44.98506 -74.09148 12307 ft 370 kts 195°
2026-05-05 04:05 44.95953 -74.09705 12802 ft 375 kts 193°
2026-05-05 04:05 44.93363 -74.10194 13334 ft 378 kts 192°
2026-05-05 04:06 44.89874 -74.10847 14025 ft 382 kts 193°
2026-05-05 04:06 44.88134 -74.11175 14355 ft 385 kts 193°
2026-05-05 04:06 44.85455 -74.11678 14875 ft 389 kts 193°
2026-05-05 04:06 44.82758 -74.12186 15412 ft 392 kts 193°
2026-05-05 04:07 44.79146 -74.12865 16113 ft 396 kts 193°
2026-05-05 04:07 44.77324 -74.13207 16456 ft 399 kts 193°
2026-05-05 04:07 44.74578 -74.13724 16936 ft 403 kts 192°
2026-05-05 04:07 44.71763 -74.13961 17409 ft 412 kts 184°
2026-05-05 04:08 44.68884 -74.13594 17888 ft 418 kts 178°
2026-05-05 04:08 44.66011 -74.13082 18424 ft 421 kts 178°
2026-05-05 04:08 44.63095 -74.12558 18922 ft 423 kts 178°
2026-05-05 04:08 44.60177 -74.12038 19353 ft 427 kts 178°
2026-05-05 04:09 44.56197 -74.11331 19976 ft 432 kts 178°
2026-05-05 04:09 44.54242 -74.10985 20294 ft 433 kts 178°
2026-05-05 04:09 44.50223 -74.10275 20897 ft 438 kts 178°
2026-05-05 04:09 44.47175 -74.09739 21340 ft 441 kts 178°
2026-05-05 04:10 44.45155 -74.09384 21619 ft 444 kts 178°
2026-05-05 04:10 44.42119 -74.08851 22033 ft 447 kts 178°
2026-05-05 04:10 44.39029 -74.08309 22451 ft 449 kts 178°
2026-05-05 04:10 44.35911 -74.07764 22876 ft 452 kts 178°
2026-05-05 04:11 44.32786 -74.07217 23248 ft 455 kts 178°
2026-05-05 04:11 44.28567 -74.06480 23770 ft 459 kts 178°
2026-05-05 04:11 44.26469 -74.06115 24030 ft 460 kts 178°
2026-05-05 04:11 44.22227 -74.05376 24516 ft 465 kts 178°
2026-05-05 04:12 44.19002 -74.04815 24902 ft 467 kts 178°
2026-05-05 04:12 44.16868 -74.04444 25175 ft 468 kts 178°
2026-05-05 04:12 44.13658 -74.03887 25543 ft 471 kts 178°
2026-05-05 04:12 44.10414 -74.03325 25888 ft 473 kts 178°
2026-05-05 04:13 44.07130 -74.02756 26253 ft 475 kts 178°
2026-05-05 04:13 44.03833 -74.02185 26583 ft 478 kts 178°
2026-05-05 04:13 44.00540 -74.01617 26915 ft 481 kts 178°
2026-05-05 04:13 43.97201 -74.01039 27327 ft 481 kts 178°
2026-05-05 04:14 43.93918 -74.00472 27742 ft 481 kts 178°
2026-05-05 04:14 43.90595 -73.99901 27785 ft 482 kts 178°
2026-05-05 04:14 43.87250 -73.99324 27793 ft 480 kts 178°
2026-05-05 04:14 43.83951 -73.98756 27795 ft 479 kts 178°
2026-05-05 04:15 43.80657 -73.98189 27792 ft 479 kts 178°
2026-05-05 04:15 43.77389 -73.97629 27788 ft 479 kts 178°
2026-05-05 04:15 43.74053 -73.97058 27791 ft 478 kts 178°
2026-05-05 04:15 43.70776 -73.96497 27793 ft 478 kts 178°
2026-05-05 04:16 43.67480 -73.95934 27794 ft 480 kts 178°
2026-05-05 04:16 43.63073 -73.95182 27796 ft 479 kts 178°
2026-05-05 04:16 43.60887 -73.94809 27795 ft 479 kts 178°
2026-05-05 04:16 43.57554 -73.94241 27796 ft 479 kts 178°
2026-05-05 04:17 43.54268 -73.93682 27799 ft 479 kts 178°
2026-05-05 04:17 43.50943 -73.93117 27800 ft 481 kts 178°
2026-05-05 04:17 43.47640 -73.92557 27804 ft 481 kts 178°
2026-05-05 04:17 43.44329 -73.91995 27811 ft 480 kts 178°
2026-05-05 04:18 43.39916 -73.91248 27809 ft 480 kts 178°
2026-05-05 04:18 43.37730 -73.90878 27807 ft 480 kts 178°
2026-05-05 04:18 43.34410 -73.90316 27813 ft 480 kts 178°
2026-05-05 04:18 43.31107 -73.89758 27812 ft 480 kts 178°
2026-05-05 04:19 43.27786 -73.89199 27817 ft 481 kts 178°
2026-05-05 04:19 43.24504 -73.88646 27816 ft 480 kts 178°
2026-05-05 04:19 43.21178 -73.88086 27819 ft 480 kts 178°
2026-05-05 04:19 43.17880 -73.87532 27818 ft 481 kts 178°
2026-05-05 04:20 43.14558 -73.86974 27820 ft 480 kts 178°
2026-05-05 04:20 43.11227 -73.86415 27819 ft 481 kts 178°
2026-05-05 04:20 43.07923 -73.85861 27824 ft 481 kts 178°
2026-05-05 04:20 43.04604 -73.85306 27825 ft 481 kts 178°
2026-05-05 04:21 43.01287 -73.84751 27827 ft 480 kts 178°
2026-05-05 04:21 42.97975 -73.84198 27829 ft 480 kts 178°
2026-05-05 04:21 42.94674 -73.83647 27837 ft 481 kts 178°
2026-05-05 04:21 42.91353 -73.83094 27835 ft 480 kts 178°
2026-05-05 04:22 42.88045 -73.82542 27824 ft 478 kts 178°
2026-05-05 04:22 42.84752 -73.81995 27824 ft 478 kts 177°
2026-05-05 04:22 42.81418 -73.81441 27815 ft 480 kts 177°
2026-05-05 04:22 42.78144 -73.80965 27816 ft 476 kts 182°
2026-05-05 04:23 42.74851 -73.81078 27820 ft 470 kts 191°
2026-05-05 04:23 42.71674 -73.81898 27827 ft 466 kts 200°
2026-05-05 04:23 42.68562 -73.83190 27825 ft 463 kts 202°
2026-05-05 04:23 42.65529 -73.84521 27823 ft 462 kts 202°
2026-05-05 04:24 42.62492 -73.85864 27823 ft 461 kts 203°
2026-05-05 04:24 42.59441 -73.87217 27818 ft 463 kts 203°
2026-05-05 04:24 42.56379 -73.88576 27818 ft 463 kts 203°
2026-05-05 04:25 42.50270 -73.91290 27828 ft 462 kts 203°
2026-05-05 04:25 42.47220 -73.92646 27825 ft 462 kts 203°
2026-05-05 04:25 42.44196 -73.93989 27826 ft 462 kts 203°
2026-05-05 04:25 42.41122 -73.95355 27825 ft 462 kts 203°
2026-05-05 04:26 42.38068 -73.96709 27835 ft 463 kts 203°
2026-05-05 04:26 42.35006 -73.98068 27834 ft 464 kts 203°
2026-05-05 04:26 42.31978 -73.99408 27833 ft 462 kts 203°
2026-05-05 04:26 42.28911 -74.00766 27840 ft 463 kts 203°
2026-05-05 04:27 42.25854 -74.02118 27842 ft 464 kts 203°
2026-05-05 04:27 42.22796 -74.03469 27842 ft 463 kts 203°
2026-05-05 04:27 42.19736 -74.04819 27843 ft 463 kts 203°
2026-05-05 04:27 42.16674 -74.06169 27852 ft 463 kts 203°
2026-05-05 04:28 42.13621 -74.07514 27848 ft 463 kts 203°
2026-05-05 04:28 42.10586 -74.08849 27852 ft 462 kts 203°
2026-05-05 04:28 42.07523 -74.10196 27868 ft 463 kts 203°
2026-05-05 04:28 42.04453 -74.11545 27872 ft 464 kts 203°
2026-05-05 04:29 42.01393 -74.12887 27872 ft 463 kts 203°
2026-05-05 04:29 41.98360 -74.14216 27879 ft 463 kts 202°
2026-05-05 04:29 41.95304 -74.15554 27875 ft 463 kts 202°
2026-05-05 04:29 41.92250 -74.16890 27869 ft 462 kts 202°
2026-05-05 04:30 41.89214 -74.18217 27869 ft 463 kts 202°
2026-05-05 04:30 41.86110 -74.19572 27865 ft 464 kts 202°
2026-05-05 04:30 41.83043 -74.20909 27869 ft 464 kts 202°
2026-05-05 04:30 41.80010 -74.22231 27869 ft 464 kts 202°
2026-05-05 04:31 41.76934 -74.23569 27865 ft 464 kts 202°
2026-05-05 04:31 41.73887 -74.24893 27877 ft 464 kts 202°
2026-05-05 04:31 41.70777 -74.26244 27876 ft 465 kts 202°
2026-05-05 04:31 41.67743 -74.27561 27880 ft 465 kts 202°
2026-05-05 04:32 41.64674 -74.28891 27881 ft 465 kts 202°
2026-05-05 04:32 41.61569 -74.30236 27881 ft 466 kts 202°
2026-05-05 04:32 41.58502 -74.31563 27886 ft 465 kts 202°
2026-05-05 04:32 41.55438 -74.32886 27877 ft 464 kts 202°
2026-05-05 04:33 41.52369 -74.34212 27879 ft 466 kts 202°
2026-05-05 04:33 41.49266 -74.35550 27885 ft 465 kts 202°
2026-05-05 04:33 41.46204 -74.36869 27877 ft 464 kts 202°
2026-05-05 04:33 41.43140 -74.38187 27878 ft 465 kts 202°
2026-05-05 04:34 41.40082 -74.39503 27880 ft 467 kts 201°
2026-05-05 04:34 41.37000 -74.40827 27876 ft 465 kts 202°
2026-05-05 04:34 41.33922 -74.42148 27884 ft 465 kts 202°
2026-05-05 04:34 41.30833 -74.43472 27885 ft 466 kts 201°
2026-05-05 04:35 41.27761 -74.44788 27881 ft 466 kts 201°
2026-05-05 04:35 41.24684 -74.46104 27888 ft 466 kts 201°
2026-05-05 04:35 41.21603 -74.47421 27890 ft 466 kts 201°
2026-05-05 04:35 41.18487 -74.48752 27893 ft 465 kts 201°
2026-05-05 04:36 41.15419 -74.50060 27897 ft 465 kts 201°
2026-05-05 04:36 41.12355 -74.51366 27899 ft 466 kts 201°
2026-05-05 04:36 41.09264 -74.52682 27898 ft 464 kts 201°
2026-05-05 04:36 41.06203 -74.53984 27900 ft 466 kts 201°
2026-05-05 04:37 41.03102 -74.55302 27901 ft 467 kts 201°
2026-05-05 04:37 41.00039 -74.56602 27903 ft 466 kts 201°
2026-05-05 04:37 40.96956 -74.57909 27903 ft 466 kts 201°
2026-05-05 04:37 40.93838 -74.59231 27902 ft 466 kts 201°
2026-05-05 04:38 40.90745 -74.60539 27907 ft 466 kts 201°
2026-05-05 04:38 40.87678 -74.61836 27900 ft 466 kts 201°
2026-05-05 04:38 40.84580 -74.63145 27903 ft 466 kts 201°
2026-05-05 04:38 40.81498 -74.64445 27902 ft 466 kts 201°
2026-05-05 04:39 40.78421 -74.65743 27903 ft 465 kts 200°
2026-05-05 04:39 40.75370 -74.67028 27904 ft 466 kts 200°
2026-05-05 04:39 40.72273 -74.68331 27903 ft 466 kts 200°
2026-05-05 04:39 40.69168 -74.69637 27896 ft 465 kts 200°
2026-05-05 04:40 40.66119 -74.70917 27898 ft 465 kts 200°
2026-05-05 04:40 40.63029 -74.72213 27897 ft 465 kts 200°
2026-05-05 04:40 40.59964 -74.73498 27895 ft 465 kts 200°
2026-05-05 04:40 40.56948 -74.74970 27901 ft 463 kts 205°
2026-05-05 04:41 40.53980 -74.76692 27897 ft 463 kts 206°
2026-05-05 04:41 40.51056 -74.78408 27897 ft 463 kts 206°
2026-05-05 04:41 40.48134 -74.80121 27897 ft 463 kts 206°
2026-05-05 04:41 40.45201 -74.81836 27903 ft 462 kts 206°
2026-05-05 04:42 40.42248 -74.83559 27900 ft 462 kts 206°
2026-05-05 04:42 40.39304 -74.85276 27899 ft 463 kts 206°
2026-05-05 04:42 40.36384 -74.86976 27905 ft 462 kts 206°
2026-05-05 04:42 40.33437 -74.88689 27903 ft 462 kts 206°
2026-05-05 04:43 40.30520 -74.90383 27906 ft 462 kts 206°
2026-05-05 04:43 40.27577 -74.92091 27907 ft 462 kts 206°
2026-05-05 04:43 40.24654 -74.93784 27906 ft 461 kts 206°
2026-05-05 04:43 40.21735 -74.95475 27911 ft 461 kts 206°
2026-05-05 04:44 40.18799 -74.97173 27912 ft 462 kts 206°
2026-05-05 04:44 40.15860 -74.98871 27913 ft 462 kts 206°
2026-05-05 04:44 40.12939 -75.00556 27913 ft 461 kts 206°
2026-05-05 04:44 40.09996 -75.02254 27915 ft 462 kts 205°
2026-05-05 04:45 40.07022 -75.03967 27916 ft 463 kts 205°
2026-05-05 04:45 40.04082 -75.05659 27915 ft 462 kts 205°
2026-05-05 04:45 40.01174 -75.07331 27916 ft 463 kts 205°
2026-05-05 04:45 39.98191 -75.09045 27912 ft 463 kts 205°
2026-05-05 04:46 39.95283 -75.10713 27913 ft 462 kts 205°
2026-05-05 04:46 39.92314 -75.12415 27918 ft 463 kts 205°
2026-05-05 04:46 39.89399 -75.14085 27915 ft 463 kts 205°
2026-05-05 04:46 39.86447 -75.15775 27915 ft 462 kts 205°
2026-05-05 04:47 39.83517 -75.17449 27916 ft 461 kts 205°
2026-05-05 04:47 39.80585 -75.19124 27918 ft 461 kts 206°
2026-05-05 04:47 39.77646 -75.20801 27913 ft 461 kts 205°
2026-05-05 04:47 39.74695 -75.22484 27916 ft 460 kts 205°
2026-05-05 04:48 39.71778 -75.24145 27918 ft 460 kts 205°
2026-05-05 04:48 39.68875 -75.25797 27916 ft 461 kts 206°
2026-05-05 04:48 39.65928 -75.27473 27915 ft 460 kts 205°
2026-05-05 04:48 39.62971 -75.29152 27912 ft 461 kts 205°
2026-05-05 04:49 39.60073 -75.30797 27914 ft 461 kts 205°
2026-05-05 04:49 39.57118 -75.32472 27911 ft 460 kts 205°
2026-05-05 04:49 39.54209 -75.34120 27910 ft 461 kts 205°
2026-05-05 04:49 39.51280 -75.35777 27907 ft 460 kts 205°
2026-05-05 04:50 39.48351 -75.37433 27907 ft 461 kts 205°
2026-05-05 04:50 39.45410 -75.39095 27913 ft 460 kts 205°
2026-05-05 04:50 39.42464 -75.40757 27912 ft 459 kts 205°
2026-05-05 04:50 39.39562 -75.42394 27911 ft 459 kts 205°
2026-05-05 04:51 39.36624 -75.44048 27913 ft 460 kts 205°
2026-05-05 04:51 39.33688 -75.45700 27916 ft 459 kts 206°
2026-05-05 04:51 39.30772 -75.47340 27919 ft 459 kts 205°
2026-05-05 04:51 39.27847 -75.48983 27918 ft 459 kts 206°
2026-05-05 04:52 39.24927 -75.50622 27915 ft 460 kts 206°
2026-05-05 04:52 39.22102 -75.52512 27921 ft 457 kts 213°
2026-05-05 04:52 39.19433 -75.54707 27923 ft 457 kts 215°
2026-05-05 04:52 39.16754 -75.56951 27922 ft 457 kts 215°
2026-05-05 04:53 39.14105 -75.59170 27924 ft 456 kts 215°
2026-05-05 04:53 39.11468 -75.61375 27924 ft 455 kts 215°
2026-05-05 04:53 39.08797 -75.63605 27925 ft 455 kts 215°
2026-05-05 04:53 39.06134 -75.65826 27927 ft 456 kts 214°
2026-05-05 04:54 39.03475 -75.68040 27926 ft 456 kts 214°
2026-05-05 04:54 39.00827 -75.70242 27923 ft 455 kts 214°
2026-05-05 04:54 38.98174 -75.72447 27928 ft 456 kts 214°
2026-05-05 04:54 38.95523 -75.74648 27934 ft 454 kts 215°
2026-05-05 04:55 38.92870 -75.76848 27934 ft 454 kts 215°
2026-05-05 04:55 38.90216 -75.79047 27937 ft 455 kts 215°
2026-05-05 04:55 38.87552 -75.81252 27938 ft 454 kts 215°
2026-05-05 04:55 38.84927 -75.83422 27941 ft 453 kts 215°
2026-05-05 04:56 38.82280 -75.85609 27942 ft 453 kts 215°
2026-05-05 04:56 38.79634 -75.87794 27939 ft 454 kts 215°
2026-05-05 04:56 38.76982 -75.89980 27939 ft 452 kts 215°
2026-05-05 04:56 38.74328 -75.92167 27939 ft 452 kts 215°
2026-05-05 04:57 38.71710 -75.94322 27943 ft 452 kts 215°
2026-05-05 04:57 38.69062 -75.96500 27941 ft 452 kts 215°
2026-05-05 04:57 38.66400 -75.98688 27947 ft 452 kts 215°
2026-05-05 04:57 38.63754 -76.00860 27951 ft 453 kts 215°
2026-05-05 04:58 38.61108 -76.03030 27952 ft 453 kts 216°
2026-05-05 04:58 38.58473 -76.05190 27951 ft 452 kts 216°
2026-05-05 04:58 38.55824 -76.07359 27950 ft 453 kts 216°
2026-05-05 04:58 38.53169 -76.09531 27952 ft 453 kts 216°
2026-05-05 04:59 38.50538 -76.11681 27951 ft 453 kts 216°
2026-05-05 04:59 38.47859 -76.13869 27952 ft 452 kts 216°
2026-05-05 04:59 38.45228 -76.16016 27949 ft 453 kts 216°
2026-05-05 04:59 38.42596 -76.18162 27949 ft 451 kts 216°
2026-05-05 05:00 38.39951 -76.20316 27952 ft 451 kts 216°
2026-05-05 05:00 38.37294 -76.22478 27947 ft 451 kts 216°
2026-05-05 05:00 38.34660 -76.24620 27949 ft 451 kts 216°
2026-05-05 05:00 38.32017 -76.26767 27952 ft 452 kts 216°
2026-05-05 05:01 38.29361 -76.28922 27951 ft 451 kts 216°
2026-05-05 05:01 38.26747 -76.31042 27956 ft 451 kts 216°
2026-05-05 05:01 38.24086 -76.33199 27958 ft 453 kts 216°
2026-05-05 05:01 38.21434 -76.35345 27952 ft 452 kts 216°
2026-05-05 05:02 38.18778 -76.37493 27958 ft 450 kts 216°
2026-05-05 05:02 38.16160 -76.39608 27960 ft 450 kts 217°
2026-05-05 05:02 38.13495 -76.41760 27959 ft 450 kts 216°
2026-05-05 05:02 38.10884 -76.43867 27960 ft 450 kts 217°
2026-05-05 05:03 38.08248 -76.45991 27961 ft 449 kts 217°
2026-05-05 05:03 38.05599 -76.48124 27965 ft 450 kts 217°
2026-05-05 05:03 38.02961 -76.50247 27961 ft 450 kts 216°
2026-05-05 05:03 38.00344 -76.52351 27956 ft 450 kts 217°
2026-05-05 05:04 37.97689 -76.54483 27958 ft 450 kts 217°
2026-05-05 05:04 37.95055 -76.56597 27955 ft 450 kts 217°
2026-05-05 05:04 37.92383 -76.58740 27957 ft 451 kts 217°
2026-05-05 05:04 37.89762 -76.60838 27957 ft 450 kts 217°
2026-05-05 05:05 37.87126 -76.62949 27951 ft 451 kts 217°
2026-05-05 05:05 37.84441 -76.65096 27958 ft 451 kts 216°
2026-05-05 05:05 37.81811 -76.67198 27968 ft 452 kts 216°
2026-05-05 05:05 37.79163 -76.69312 27972 ft 451 kts 216°
2026-05-05 05:06 37.76495 -76.71440 27974 ft 450 kts 216°
2026-05-05 05:06 37.73850 -76.73548 27969 ft 451 kts 216°
2026-05-05 05:06 37.71220 -76.75642 27977 ft 451 kts 216°
2026-05-05 05:06 37.68544 -76.77772 27977 ft 451 kts 216°
2026-05-05 05:07 37.65900 -76.79873 27979 ft 450 kts 216°
2026-05-05 05:07 37.63257 -76.81973 27985 ft 451 kts 216°
2026-05-05 05:07 37.60599 -76.84082 27982 ft 451 kts 216°
2026-05-05 05:07 37.57959 -76.86175 27977 ft 450 kts 216°
2026-05-05 05:08 37.55298 -76.88284 27983 ft 451 kts 216°
2026-05-05 05:08 37.52652 -76.90378 27981 ft 449 kts 216°
2026-05-05 05:08 37.50004 -76.92471 27984 ft 449 kts 216°
2026-05-05 05:08 37.47269 -76.94357 27976 ft 455 kts 208°
2026-05-05 05:09 37.44295 -76.95696 27976 ft 458 kts 199°
2026-05-05 05:09 37.41149 -76.96510 27986 ft 462 kts 194°
2026-05-05 05:09 37.37957 -76.97186 27987 ft 463 kts 194°
2026-05-05 05:09 37.34786 -76.97844 27988 ft 463 kts 194°
2026-05-05 05:10 37.31620 -76.98498 27983 ft 463 kts 194°
2026-05-05 05:10 37.28459 -76.99151 27987 ft 463 kts 193°
2026-05-05 05:10 37.25281 -76.99805 27994 ft 463 kts 194°
2026-05-05 05:10 37.22073 -77.00465 27998 ft 463 kts 194°
2026-05-05 05:11 37.18900 -77.01118 27995 ft 463 kts 194°
2026-05-05 05:11 37.15739 -77.01766 27999 ft 463 kts 194°
2026-05-05 05:11 37.12554 -77.02420 28000 ft 464 kts 194°
2026-05-05 05:12 37.06175 -77.03726 28007 ft 464 kts 194°
2026-05-05 05:12 36.99810 -77.05026 28015 ft 464 kts 193°
2026-05-05 05:13 36.93480 -77.06317 28013 ft 463 kts 194°
2026-05-05 05:13 36.87091 -77.07619 28017 ft 463 kts 194°
2026-05-05 05:14 36.80735 -77.08910 28010 ft 462 kts 194°
2026-05-05 05:14 36.74410 -77.10194 28018 ft 462 kts 194°
2026-05-05 05:15 36.68071 -77.11478 28020 ft 462 kts 194°
2026-05-05 05:15 36.61694 -77.12769 28024 ft 462 kts 194°
2026-05-05 05:16 36.55378 -77.14043 28021 ft 461 kts 194°
2026-05-05 05:16 36.49060 -77.15318 28028 ft 462 kts 193°
2026-05-05 05:17 36.42712 -77.16595 28034 ft 463 kts 194°
2026-05-05 05:17 36.36354 -77.17872 28032 ft 461 kts 194°
2026-05-05 05:18 36.30011 -77.19144 28044 ft 461 kts 194°
2026-05-05 05:18 36.23688 -77.20411 28048 ft 462 kts 194°
2026-05-05 05:19 36.17347 -77.21679 28051 ft 462 kts 193°
2026-05-05 05:19 36.10989 -77.22948 28046 ft 462 kts 194°
2026-05-05 05:20 36.04659 -77.24209 28045 ft 461 kts 194°
2026-05-05 05:20 35.98320 -77.25471 28046 ft 461 kts 194°
2026-05-05 05:21 35.92018 -77.26722 28056 ft 460 kts 193°
2026-05-05 05:21 35.85696 -77.27976 28054 ft 460 kts 193°
2026-05-05 05:22 35.79378 -77.29227 28056 ft 460 kts 193°
2026-05-05 05:22 35.73042 -77.30479 28059 ft 460 kts 193°
2026-05-05 05:23 35.66709 -77.31729 28064 ft 460 kts 193°
2026-05-05 05:23 35.60413 -77.32970 28060 ft 459 kts 193°
2026-05-05 05:24 35.54102 -77.34211 28067 ft 459 kts 193°
2026-05-05 05:24 35.47773 -77.35455 28061 ft 460 kts 193°
2026-05-05 05:25 35.41494 -77.36685 28057 ft 459 kts 193°
2026-05-05 05:25 35.35164 -77.37925 28058 ft 459 kts 193°
2026-05-05 05:26 35.28881 -77.39153 28058 ft 459 kts 193°
2026-05-05 05:26 35.22578 -77.40383 28060 ft 459 kts 193°
2026-05-05 05:27 35.16255 -77.41615 28062 ft 459 kts 193°
2026-05-05 05:27 35.06805 -77.43453 28060 ft 459 kts 193°
2026-05-05 05:28 35.00490 -77.44679 28069 ft 458 kts 193°
2026-05-05 05:28 34.94218 -77.45894 28076 ft 457 kts 193°
2026-05-05 05:29 34.87955 -77.47106 28081 ft 456 kts 193°
2026-05-05 05:29 34.81686 -77.48317 28078 ft 456 kts 193°
2026-05-05 05:30 34.75396 -77.49531 28080 ft 455 kts 193°
2026-05-05 05:30 34.69156 -77.50732 28079 ft 454 kts 193°
2026-05-05 05:31 34.62913 -77.51933 28078 ft 454 kts 193°
2026-05-05 05:31 34.56707 -77.53124 28079 ft 453 kts 193°
2026-05-05 05:32 34.50473 -77.54330 28070 ft 452 kts 194°
2026-05-05 05:32 34.44285 -77.55705 28074 ft 451 kts 195°
2026-05-05 05:33 34.38141 -77.57075 28071 ft 451 kts 195°
2026-05-05 05:33 34.31971 -77.58443 28071 ft 450 kts 195°
2026-05-05 05:34 34.25803 -77.59804 28074 ft 450 kts 195°
2026-05-05 05:34 34.19634 -77.61164 28074 ft 450 kts 195°
2026-05-05 05:35 34.13508 -77.62511 28072 ft 449 kts 195°
2026-05-05 05:35 34.07348 -77.63862 28074 ft 449 kts 195°
2026-05-05 05:36 34.01231 -77.65202 28077 ft 448 kts 194°
2026-05-05 05:36 33.95089 -77.66546 28081 ft 448 kts 194°
2026-05-05 05:37 33.88938 -77.67889 28078 ft 449 kts 194°
2026-05-05 05:37 33.82793 -77.69230 28082 ft 449 kts 194°
2026-05-05 05:38 33.76641 -77.70570 28081 ft 449 kts 194°
2026-05-05 05:38 33.70524 -77.71899 28084 ft 449 kts 194°
2026-05-05 05:39 33.64407 -77.73514 28086 ft 446 kts 200°
2026-05-05 05:39 33.58475 -77.75530 28080 ft 446 kts 200°
2026-05-05 05:40 33.52480 -77.77531 28086 ft 446 kts 199°
2026-05-05 05:40 33.46496 -77.79507 28082 ft 446 kts 199°
2026-05-05 05:41 33.40510 -77.81468 28086 ft 446 kts 199°
2026-05-05 05:41 33.34548 -77.83414 28085 ft 446 kts 199°
2026-05-05 05:42 33.28568 -77.85359 28087 ft 446 kts 199°
2026-05-05 05:42 33.22559 -77.87310 28087 ft 446 kts 199°
2026-05-05 05:43 33.16586 -77.89246 28088 ft 446 kts 199°
2026-05-05 05:43 33.10583 -77.91188 28087 ft 446 kts 199°
2026-05-05 05:44 33.04544 -77.92857 28081 ft 451 kts 190°
2026-05-05 05:44 32.98197 -77.92814 28089 ft 456 kts 182°
2026-05-05 05:45 32.91890 -77.92431 28090 ft 456 kts 181°
2026-05-05 05:45 32.85552 -77.92049 28093 ft 456 kts 182°
2026-05-05 05:46 32.79201 -77.91670 28092 ft 456 kts 181°
2026-05-05 05:46 32.72863 -77.91293 28091 ft 456 kts 181°
2026-05-05 05:47 32.66558 -77.90920 28095 ft 456 kts 181°
2026-05-05 05:47 32.60184 -77.90544 28089 ft 456 kts 181°
2026-05-05 05:48 32.53891 -77.90173 28094 ft 455 kts 181°
2026-05-05 05:48 32.47551 -77.89799 28096 ft 455 kts 181°
2026-05-05 05:49 32.41211 -77.89427 28093 ft 455 kts 181°
2026-05-05 05:49 32.34901 -77.89056 28094 ft 455 kts 181°
2026-05-05 05:50 32.28568 -77.88686 28094 ft 455 kts 181°
2026-05-05 05:50 32.22243 -77.88316 28095 ft 455 kts 181°
2026-05-05 05:51 32.15897 -77.87945 28092 ft 455 kts 181°
2026-05-05 05:51 32.09570 -77.87575 28094 ft 455 kts 181°
2026-05-05 05:52 32.03233 -77.87206 28094 ft 455 kts 181°
2026-05-05 05:52 31.96935 -77.86840 28094 ft 455 kts 181°
2026-05-05 05:53 31.90578 -77.86470 28088 ft 455 kts 181°
2026-05-05 05:53 31.84276 -77.86029 28093 ft 455 kts 180°
2026-05-05 05:54 31.77960 -77.85528 28091 ft 455 kts 180°
2026-05-05 05:54 31.71621 -77.85030 28089 ft 455 kts 181°
2026-05-05 05:55 31.65307 -77.84537 28086 ft 455 kts 181°
2026-05-05 05:55 31.59018 -77.84049 28086 ft 455 kts 181°
2026-05-05 05:56 31.52703 -77.83559 28093 ft 454 kts 181°
2026-05-05 05:56 31.46402 -77.83072 28093 ft 454 kts 181°
2026-05-05 05:57 31.40096 -77.82585 28092 ft 454 kts 181°
2026-05-05 05:57 31.33777 -77.82098 28090 ft 454 kts 181°
2026-05-05 05:58 31.27490 -77.81614 28089 ft 453 kts 181°
2026-05-05 05:58 31.21180 -77.81129 28092 ft 453 kts 182°
2026-05-05 05:59 31.14914 -77.80648 28095 ft 453 kts 181°
2026-05-05 05:59 31.08595 -77.80164 28085 ft 453 kts 181°
2026-05-05 06:00 31.02344 -77.79685 28089 ft 452 kts 182°
2026-05-05 06:00 30.96054 -77.79205 28085 ft 452 kts 182°
2026-05-05 06:01 30.89780 -77.78725 28077 ft 451 kts 182°
2026-05-05 06:01 30.83501 -77.78246 28090 ft 451 kts 182°
2026-05-05 06:02 30.77245 -77.77770 28083 ft 451 kts 182°
2026-05-05 06:02 30.70974 -77.77293 28091 ft 451 kts 182°
2026-05-05 06:03 30.64724 -77.76819 28095 ft 450 kts 183°
2026-05-05 06:03 30.58480 -77.76345 28102 ft 449 kts 183°
2026-05-05 06:04 30.52235 -77.75872 28101 ft 449 kts 183°
2026-05-05 06:04 30.46009 -77.75401 28104 ft 449 kts 183°
2026-05-05 06:05 30.39781 -77.74934 28095 ft 448 kts 184°
2026-05-05 06:05 30.33552 -77.74607 28096 ft 447 kts 185°
2026-05-05 06:06 30.27341 -77.74291 28081 ft 447 kts 185°
2026-05-05 06:06 30.21148 -77.73972 28093 ft 446 kts 185°
2026-05-05 06:07 30.14911 -77.73649 28096 ft 446 kts 185°
2026-05-05 06:07 30.08726 -77.73328 28088 ft 446 kts 185°
2026-05-05 06:08 30.02500 -77.73003 28091 ft 446 kts 185°
2026-05-05 06:08 29.96294 -77.72681 28088 ft 446 kts 185°
2026-05-05 06:09 29.90127 -77.72360 28090 ft 446 kts 185°
2026-05-05 06:09 29.83927 -77.72038 28091 ft 446 kts 185°
2026-05-05 06:10 29.77718 -77.71716 28087 ft 446 kts 185°
2026-05-05 06:10 29.71512 -77.71394 28082 ft 446 kts 185°
2026-05-05 06:11 29.65300 -77.71073 28084 ft 446 kts 185°
2026-05-05 06:11 29.59112 -77.70753 28083 ft 446 kts 185°
2026-05-05 06:12 29.52917 -77.70434 28084 ft 446 kts 185°
2026-05-05 06:12 29.46696 -77.70113 28076 ft 446 kts 185°
2026-05-05 06:13 29.40518 -77.69796 28084 ft 446 kts 185°
2026-05-05 06:13 29.34295 -77.69476 28076 ft 446 kts 185°
2026-05-05 06:14 29.28111 -77.69160 28076 ft 446 kts 185°
2026-05-05 06:14 29.21909 -77.68842 28074 ft 446 kts 185°
2026-05-05 06:15 29.15692 -77.68524 28072 ft 446 kts 185°
2026-05-05 06:15 29.09487 -77.68196 28073 ft 447 kts 184°
2026-05-05 06:16 29.03280 -77.67855 28069 ft 447 kts 184°
2026-05-05 06:16 28.97063 -77.67515 28072 ft 447 kts 184°
2026-05-05 06:17 28.90820 -77.67174 28068 ft 447 kts 184°
2026-05-05 06:17 28.84614 -77.66836 28056 ft 447 kts 184°
2026-05-05 06:18 28.78410 -77.66498 28048 ft 447 kts 184°
2026-05-05 06:18 28.72172 -77.66159 28044 ft 447 kts 185°
2026-05-05 06:19 28.65954 -77.65822 28052 ft 448 kts 184°
2026-05-05 06:19 28.59724 -77.65484 28041 ft 447 kts 185°
2026-05-05 06:20 28.53503 -77.65154 28040 ft 447 kts 185°
2026-05-05 06:20 28.47282 -77.64875 28039 ft 447 kts 185°
2026-05-05 06:21 28.41052 -77.64595 28043 ft 447 kts 185°
2026-05-05 06:21 28.34848 -77.64315 28036 ft 447 kts 185°
2026-05-05 06:22 28.28611 -77.64033 28036 ft 447 kts 185°
2026-05-05 06:22 28.22400 -77.63752 28038 ft 447 kts 185°
2026-05-05 06:23 28.16194 -77.63282 28028 ft 454 kts 177°
2026-05-05 06:23 28.10123 -77.60911 28022 ft 471 kts 157°
2026-05-05 06:24 28.04699 -77.56598 28032 ft 478 kts 148°
2026-05-05 06:24 27.99423 -77.52017 28033 ft 478 kts 148°
2026-05-05 06:25 27.94141 -77.47457 28033 ft 479 kts 148°
2026-05-05 06:25 27.88834 -77.42890 28031 ft 479 kts 148°
2026-05-05 06:26 27.83517 -77.38329 28034 ft 479 kts 148°
2026-05-05 06:26 27.78196 -77.33771 28020 ft 480 kts 149°
2026-05-05 06:27 27.70253 -77.26981 28018 ft 478 kts 149°
2026-05-05 06:28 27.64961 -77.22465 28016 ft 478 kts 149°
2026-05-05 06:28 27.59641 -77.17932 28019 ft 477 kts 149°
2026-05-05 06:29 27.54353 -77.13432 28019 ft 476 kts 149°
2026-05-05 06:29 27.49069 -77.08941 28019 ft 476 kts 149°
2026-05-05 06:30 27.43797 -77.04466 28009 ft 475 kts 149°
2026-05-05 06:30 27.38509 -76.99982 28015 ft 475 kts 149°
2026-05-05 06:31 27.33227 -76.95509 28011 ft 475 kts 149°
2026-05-05 06:31 27.27953 -76.91049 28015 ft 474 kts 149°
2026-05-05 06:32 27.22718 -76.86627 28016 ft 474 kts 149°
2026-05-05 06:32 27.17424 -76.82160 27979 ft 475 kts 149°
2026-05-05 06:32 27.14790 -76.79942 27791 ft 479 kts 149°
2026-05-05 06:33 27.12086 -76.77666 27586 ft 484 kts 149°
2026-05-05 06:33 27.09410 -76.75415 27381 ft 489 kts 149°
2026-05-05 06:33 27.06678 -76.73116 27177 ft 494 kts 149°
2026-05-05 06:33 27.03911 -76.70791 27033 ft 497 kts 148°
2026-05-05 06:34 27.01128 -76.68452 27017 ft 497 kts 148°
2026-05-05 06:34 26.98392 -76.66153 27013 ft 497 kts 149°
2026-05-05 06:34 26.95603 -76.63811 27018 ft 497 kts 149°
2026-05-05 06:34 26.92835 -76.61490 27019 ft 497 kts 149°
2026-05-05 06:35 26.90052 -76.59156 27013 ft 497 kts 149°
2026-05-05 06:35 26.87281 -76.56834 27022 ft 497 kts 149°
2026-05-05 06:35 26.84543 -76.54542 27022 ft 497 kts 149°
2026-05-05 06:35 26.81759 -76.52213 27023 ft 497 kts 149°
2026-05-05 06:36 26.78993 -76.49901 27021 ft 498 kts 149°
2026-05-05 06:36 26.76221 -76.47584 27018 ft 497 kts 149°
2026-05-05 06:36 26.73439 -76.45261 27021 ft 497 kts 149°
2026-05-05 06:36 26.70663 -76.42945 27024 ft 498 kts 149°
2026-05-05 06:37 26.67885 -76.40628 27021 ft 498 kts 149°
2026-05-05 06:37 26.65138 -76.38339 27018 ft 498 kts 149°
2026-05-05 06:37 26.62360 -76.36025 27022 ft 498 kts 149°
2026-05-05 06:37 26.59578 -76.33708 27014 ft 498 kts 149°
2026-05-05 06:38 26.56781 -76.31381 27013 ft 498 kts 149°
2026-05-05 06:38 26.54013 -76.29079 27006 ft 497 kts 149°
2026-05-05 06:38 26.51259 -76.26791 27006 ft 497 kts 149°
2026-05-05 06:38 26.48478 -76.24483 27011 ft 497 kts 149°
2026-05-05 06:39 26.45726 -76.22199 27009 ft 496 kts 149°
2026-05-05 06:39 26.42921 -76.19872 27015 ft 496 kts 149°
2026-05-05 06:39 26.40187 -76.17606 27005 ft 496 kts 149°
2026-05-05 06:39 26.37391 -76.15289 27010 ft 496 kts 149°
2026-05-05 06:40 26.34621 -76.12997 27007 ft 495 kts 149°
2026-05-05 06:40 26.31857 -76.10710 27009 ft 495 kts 149°
2026-05-05 06:40 26.29116 -76.08443 27012 ft 495 kts 149°
2026-05-05 06:40 26.26332 -76.06143 27012 ft 495 kts 149°
2026-05-05 06:41 26.23572 -76.03863 27010 ft 495 kts 149°
2026-05-05 06:41 26.20813 -76.01587 27010 ft 494 kts 149°
2026-05-05 06:41 26.18058 -75.99315 27011 ft 494 kts 149°
2026-05-05 06:41 26.15301 -75.97042 27002 ft 494 kts 149°
2026-05-05 06:42 26.12526 -75.94756 27008 ft 494 kts 149°
2026-05-05 06:42 26.09769 -75.92486 27012 ft 494 kts 149°
2026-05-05 06:42 26.07001 -75.90208 27009 ft 494 kts 149°
2026-05-05 06:42 26.04245 -75.87942 27010 ft 494 kts 149°
2026-05-05 06:43 26.01484 -75.85673 27005 ft 494 kts 149°
2026-05-05 06:43 25.98752 -75.83429 27010 ft 494 kts 149°
2026-05-05 06:43 25.95988 -75.81161 27009 ft 494 kts 149°
2026-05-05 06:43 25.93197 -75.78870 27011 ft 494 kts 149°
2026-05-05 06:44 25.90443 -75.76613 27011 ft 494 kts 149°
2026-05-05 06:44 25.87670 -75.74340 27012 ft 494 kts 149°
2026-05-05 06:44 25.84921 -75.72090 27016 ft 494 kts 149°
2026-05-05 06:44 25.82157 -75.69827 27015 ft 494 kts 149°
2026-05-05 06:45 25.79399 -75.67572 27016 ft 494 kts 149°
2026-05-05 06:45 25.76620 -75.65300 27018 ft 494 kts 149°
2026-05-05 06:45 25.73843 -75.63032 27017 ft 494 kts 149°
2026-05-05 06:45 25.71085 -75.60780 27014 ft 494 kts 149°
2026-05-05 06:46 25.68306 -75.58513 27015 ft 494 kts 149°
2026-05-05 06:46 25.65552 -75.56267 27014 ft 494 kts 149°
2026-05-05 06:46 25.62801 -75.54025 27012 ft 495 kts 149°
2026-05-05 06:46 25.60009 -75.51750 27012 ft 495 kts 149°
2026-05-05 06:47 25.57246 -75.49501 27018 ft 495 kts 149°
2026-05-05 06:47 25.54454 -75.47230 27019 ft 495 kts 149°
2026-05-05 06:47 25.51696 -75.44988 27016 ft 495 kts 149°
2026-05-05 06:47 25.48937 -75.42745 27013 ft 495 kts 149°
2026-05-05 06:48 25.46131 -75.40467 27017 ft 495 kts 149°
2026-05-05 06:48 25.43369 -75.38226 27014 ft 495 kts 149°
2026-05-05 06:48 25.40568 -75.35953 27013 ft 496 kts 149°
2026-05-05 06:48 25.37792 -75.33703 27005 ft 496 kts 149°
2026-05-05 06:49 25.35045 -75.31477 27001 ft 496 kts 149°
2026-05-05 06:49 25.32258 -75.29220 27000 ft 495 kts 150°
2026-05-05 06:49 25.29455 -75.26951 27002 ft 495 kts 150°
2026-05-05 06:49 25.26689 -75.24714 26998 ft 495 kts 150°
2026-05-05 06:50 25.23925 -75.22479 26995 ft 494 kts 150°
2026-05-05 06:50 25.21155 -75.20242 26993 ft 494 kts 150°
2026-05-05 06:50 25.18391 -75.18010 26992 ft 494 kts 149°
2026-05-05 06:50 25.15594 -75.15752 26990 ft 494 kts 149°
2026-05-05 06:51 25.12838 -75.13530 26982 ft 493 kts 150°
2026-05-05 06:51 25.10041 -75.11276 26988 ft 493 kts 150°
2026-05-05 06:51 25.07280 -75.09051 26988 ft 493 kts 149°
2026-05-05 06:51 25.04537 -75.06843 26985 ft 493 kts 150°
2026-05-05 06:52 25.01748 -75.04577 26990 ft 493 kts 149°
2026-05-05 06:52 24.99020 -75.02355 26983 ft 493 kts 149°
2026-05-05 06:52 24.96234 -75.00086 26981 ft 493 kts 149°
2026-05-05 06:52 24.93483 -74.97849 26984 ft 493 kts 149°
2026-05-05 06:53 24.90750 -74.95627 26986 ft 492 kts 149°
2026-05-05 06:53 24.87978 -74.93375 26986 ft 492 kts 149°
2026-05-05 06:53 24.85226 -74.91142 26986 ft 492 kts 149°
2026-05-05 06:53 24.82470 -74.88905 26988 ft 492 kts 149°
2026-05-05 06:54 24.79699 -74.86659 26989 ft 492 kts 149°
2026-05-05 06:54 24.76953 -74.84435 26986 ft 492 kts 149°
2026-05-05 06:54 24.74186 -74.82194 26989 ft 492 kts 149°
2026-05-05 06:54 24.71431 -74.79964 26992 ft 492 kts 149°
2026-05-05 06:55 24.68693 -74.77749 26990 ft 492 kts 149°
2026-05-05 06:55 24.65921 -74.75509 26990 ft 492 kts 149°
2026-05-05 06:55 24.63182 -74.73296 26990 ft 493 kts 149°
2026-05-05 06:55 24.60396 -74.71052 26989 ft 492 kts 150°
2026-05-05 06:56 24.57626 -74.68893 26995 ft 492 kts 150°
2026-05-05 06:56 24.54794 -74.66705 26990 ft 492 kts 150°
2026-05-05 06:56 24.52001 -74.64548 26988 ft 492 kts 150°
2026-05-05 06:56 24.49198 -74.62382 26988 ft 492 kts 150°
2026-05-05 06:57 24.46436 -74.60247 26984 ft 492 kts 150°
2026-05-05 06:57 24.43616 -74.58067 26994 ft 491 kts 150°
2026-05-05 06:57 24.40840 -74.55918 26985 ft 492 kts 149°
2026-05-05 06:57 24.38136 -74.53574 26991 ft 495 kts 146°
2026-05-05 06:58 24.35483 -74.51171 26997 ft 495 kts 146°
2026-05-05 06:58 24.32844 -74.48786 26993 ft 495 kts 146°
2026-05-05 06:58 24.30166 -74.46375 26993 ft 495 kts 146°
2026-05-05 06:58 24.27524 -74.44004 26997 ft 495 kts 146°
2026-05-05 06:59 24.24838 -74.41599 26997 ft 495 kts 146°
2026-05-05 06:59 24.22173 -74.39217 27000 ft 495 kts 146°
2026-05-05 06:59 24.19530 -74.36859 26994 ft 495 kts 146°
2026-05-05 06:59 24.16851 -74.34473 26998 ft 495 kts 146°
2026-05-05 07:00 24.14187 -74.32102 26985 ft 495 kts 146°
2026-05-05 07:00 24.11507 -74.29720 26983 ft 495 kts 147°
2026-05-05 07:00 24.08830 -74.27341 26989 ft 494 kts 147°
2026-05-05 07:00 24.06175 -74.24985 26983 ft 494 kts 147°
2026-05-05 07:01 24.03490 -74.22603 26985 ft 494 kts 146°
2026-05-05 07:01 24.00818 -74.20234 26983 ft 493 kts 147°
2026-05-05 07:01 23.98156 -74.17877 26983 ft 493 kts 147°
2026-05-05 07:01 23.95513 -74.15537 26984 ft 493 kts 146°
2026-05-05 07:02 23.92831 -74.13165 26984 ft 493 kts 147°
2026-05-05 07:02 23.90192 -74.10831 26983 ft 492 kts 146°
2026-05-05 07:02 23.87496 -74.08449 26985 ft 492 kts 147°
2026-05-05 07:02 23.84853 -74.06114 26987 ft 492 kts 146°
2026-05-05 07:03 23.82174 -74.03750 26988 ft 492 kts 146°
2026-05-05 07:03 23.79509 -74.01399 26986 ft 492 kts 146°
2026-05-05 07:03 23.76852 -73.99057 26988 ft 492 kts 146°
2026-05-05 07:03 23.74201 -73.96722 26989 ft 492 kts 146°
2026-05-05 07:04 23.71546 -73.94385 26989 ft 492 kts 146°
2026-05-05 07:04 23.68887 -73.92047 26987 ft 492 kts 146°
2026-05-05 07:04 23.66235 -73.89716 26984 ft 491 kts 146°
2026-05-05 07:04 23.63571 -73.87375 26988 ft 491 kts 146°
2026-05-05 07:05 23.60903 -73.85032 26991 ft 491 kts 146°
2026-05-05 07:05 23.58232 -73.82687 26989 ft 491 kts 146°
2026-05-05 07:05 23.55559 -73.80343 26990 ft 491 kts 146°
2026-05-05 07:05 23.52906 -73.78017 26988 ft 491 kts 146°
2026-05-05 07:06 23.50238 -73.75678 26988 ft 491 kts 146°
2026-05-05 07:06 23.47583 -73.73354 26991 ft 491 kts 146°
2026-05-05 07:06 23.44943 -73.71043 26990 ft 491 kts 146°
2026-05-05 07:06 23.42274 -73.68707 26991 ft 491 kts 146°
2026-05-05 07:07 23.39600 -73.66368 26990 ft 491 kts 146°
2026-05-05 07:07 23.36958 -73.64059 26989 ft 491 kts 146°
2026-05-05 07:07 23.34264 -73.61706 26989 ft 491 kts 146°
2026-05-05 07:07 23.31604 -73.59384 26991 ft 491 kts 146°
2026-05-05 07:08 23.28942 -73.57062 26990 ft 491 kts 146°
2026-05-05 07:08 23.26279 -73.54739 26990 ft 491 kts 146°
2026-05-05 07:08 23.23640 -73.52438 26992 ft 491 kts 146°
2026-05-05 07:08 23.20939 -73.50085 26990 ft 491 kts 146°
2026-05-05 07:09 23.18307 -73.47794 26990 ft 491 kts 146°
2026-05-05 07:09 23.15627 -73.45461 26989 ft 491 kts 146°
2026-05-05 07:09 23.12949 -73.43131 26992 ft 491 kts 146°
2026-05-05 07:09 23.10282 -73.40813 26992 ft 491 kts 146°
2026-05-05 07:10 23.07632 -73.38511 26992 ft 491 kts 146°
2026-05-05 07:10 23.04982 -73.36210 26990 ft 491 kts 146°
2026-05-05 07:10 23.02303 -73.33884 26982 ft 491 kts 146°
2026-05-05 07:10 22.99648 -73.31580 26981 ft 490 kts 146°
2026-05-05 07:11 22.96961 -73.29250 26980 ft 490 kts 146°
2026-05-05 07:11 22.94328 -73.26968 26982 ft 490 kts 146°
2026-05-05 07:11 22.91657 -73.24654 26982 ft 489 kts 146°
2026-05-05 07:11 22.89012 -73.22365 26982 ft 489 kts 146°
2026-05-05 07:12 22.86337 -73.20049 26982 ft 489 kts 146°
2026-05-05 07:12 22.83689 -73.17760 26982 ft 488 kts 146°
2026-05-05 07:12 22.81043 -73.15472 26985 ft 488 kts 146°
2026-05-05 07:12 22.78376 -73.13168 26984 ft 488 kts 146°
2026-05-05 07:13 22.75738 -73.10889 26983 ft 488 kts 146°
2026-05-05 07:13 22.73072 -73.08588 26986 ft 487 kts 146°
2026-05-05 07:13 22.70412 -73.06293 26984 ft 487 kts 146°
2026-05-05 07:13 22.67760 -73.04007 26981 ft 487 kts 146°
2026-05-05 07:14 22.65114 -73.01727 26981 ft 487 kts 146°
2026-05-05 07:14 22.62467 -72.99447 26978 ft 487 kts 146°
2026-05-05 07:14 22.59823 -72.97171 26975 ft 487 kts 146°
2026-05-05 07:14 22.57183 -72.94899 26973 ft 487 kts 146°
2026-05-05 07:15 22.54509 -72.92600 26972 ft 487 kts 146°
2026-05-05 07:15 22.51856 -72.90318 26968 ft 487 kts 146°
2026-05-05 07:15 22.49203 -72.88062 26969 ft 486 kts 146°
2026-05-05 07:15 22.46523 -72.85812 26968 ft 486 kts 146°
2026-05-05 07:16 22.43873 -72.83591 26968 ft 486 kts 146°
2026-05-05 07:16 22.41187 -72.81339 26968 ft 486 kts 146°
2026-05-05 07:16 22.38509 -72.79094 26970 ft 486 kts 146°
2026-05-05 07:16 22.35839 -72.76856 26971 ft 486 kts 146°
2026-05-05 07:17 22.33172 -72.74622 26970 ft 486 kts 146°
2026-05-05 07:17 22.30516 -72.72398 26971 ft 486 kts 146°
2026-05-05 07:17 22.27850 -72.70166 26968 ft 486 kts 146°
2026-05-05 07:17 22.25153 -72.67909 26969 ft 486 kts 146°
2026-05-05 07:18 22.22481 -72.65661 26970 ft 486 kts 145°
2026-05-05 07:18 22.19871 -72.63403 26968 ft 486 kts 145°
2026-05-05 07:18 22.17207 -72.61091 26969 ft 486 kts 145°
2026-05-05 07:18 22.14577 -72.58811 26969 ft 486 kts 145°
2026-05-05 07:19 22.11935 -72.56523 26969 ft 486 kts 145°
2026-05-05 07:19 22.09290 -72.54235 26968 ft 486 kts 145°
2026-05-05 07:19 22.06660 -72.51963 26967 ft 486 kts 145°
2026-05-05 07:19 22.04023 -72.49685 26969 ft 486 kts 145°
2026-05-05 07:20 22.01385 -72.47409 26970 ft 486 kts 145°
2026-05-05 07:20 21.98753 -72.45139 26969 ft 486 kts 145°
2026-05-05 07:20 21.96091 -72.42844 26971 ft 486 kts 145°
2026-05-05 07:20 21.93457 -72.40575 26969 ft 487 kts 145°
2026-05-05 07:21 21.90827 -72.38311 26970 ft 487 kts 145°
2026-05-05 07:21 21.88150 -72.36007 26973 ft 487 kts 145°
2026-05-05 07:21 21.85531 -72.33755 26965 ft 487 kts 145°
2026-05-05 07:21 21.82870 -72.31467 26962 ft 486 kts 145°
2026-05-05 07:22 21.80226 -72.29195 26962 ft 486 kts 146°
2026-05-05 07:22 21.77578 -72.26921 26963 ft 486 kts 145°
2026-05-05 07:22 21.74961 -72.24618 26962 ft 486 kts 144°
2026-05-05 07:22 21.72391 -72.22278 26960 ft 486 kts 143°
2026-05-05 07:23 21.69818 -72.19933 26956 ft 486 kts 143°
2026-05-05 07:23 21.67238 -72.17586 26958 ft 486 kts 143°
2026-05-05 07:23 21.64649 -72.15233 26955 ft 486 kts 143°
2026-05-05 07:23 21.62056 -72.12881 26958 ft 485 kts 143°
2026-05-05 07:24 21.59471 -72.10538 26960 ft 485 kts 143°
2026-05-05 07:24 21.56887 -72.08197 26958 ft 485 kts 143°
2026-05-05 07:24 21.54308 -72.05863 26955 ft 485 kts 143°
2026-05-05 07:24 21.51750 -72.03551 26956 ft 485 kts 143°
2026-05-05 07:25 21.49155 -72.01205 26959 ft 485 kts 143°
2026-05-05 07:25 21.46592 -71.98890 26957 ft 485 kts 143°
2026-05-05 07:25 21.44003 -71.96554 26957 ft 485 kts 143°
2026-05-05 07:25 21.41410 -71.94215 26957 ft 484 kts 143°
2026-05-05 07:26 21.38854 -71.91909 26956 ft 484 kts 143°
2026-05-05 07:26 21.36253 -71.89565 26963 ft 484 kts 143°
2026-05-05 07:26 21.33703 -71.87269 26959 ft 484 kts 143°
2026-05-05 07:26 21.31108 -71.84932 26954 ft 484 kts 143°
2026-05-05 07:27 21.28481 -71.82709 26966 ft 481 kts 148°
2026-05-05 07:27 21.25741 -71.80616 26961 ft 481 kts 148°
2026-05-05 07:27 21.23034 -71.78559 26960 ft 481 kts 148°
2026-05-05 07:27 21.20293 -71.76469 26957 ft 481 kts 148°
2026-05-05 07:28 21.17557 -71.74377 26965 ft 481 kts 148°
2026-05-05 07:28 21.14859 -71.72308 26966 ft 481 kts 148°
2026-05-05 07:28 21.12135 -71.70217 26959 ft 481 kts 148°
2026-05-05 07:28 21.09404 -71.68119 26963 ft 481 kts 148°
2026-05-05 07:29 21.06705 -71.66043 26961 ft 481 kts 148°
2026-05-05 07:29 21.03980 -71.63949 26958 ft 481 kts 148°
2026-05-05 07:29 21.01248 -71.61848 26963 ft 481 kts 148°
2026-05-05 07:29 20.98543 -71.59714 26962 ft 482 kts 146°
2026-05-05 07:30 20.95932 -71.57502 26959 ft 482 kts 145°
2026-05-05 07:30 20.90685 -71.53034 26963 ft 482 kts 145°
2026-05-05 07:30 20.88048 -71.50797 26965 ft 482 kts 145°
2026-05-05 07:31 20.85403 -71.48557 26965 ft 482 kts 145°
2026-05-05 07:31 20.82793 -71.46350 26963 ft 482 kts 145°
2026-05-05 07:31 20.80148 -71.44116 26967 ft 483 kts 145°
2026-05-05 07:31 20.77499 -71.41882 26963 ft 483 kts 145°
2026-05-05 07:32 20.74884 -71.39677 26967 ft 483 kts 145°
2026-05-05 07:32 20.72240 -71.37450 26965 ft 483 kts 145°
2026-05-05 07:32 20.69615 -71.35239 26965 ft 483 kts 145°
2026-05-05 07:32 20.66963 -71.33009 26956 ft 483 kts 146°
2026-05-05 07:33 20.64314 -71.30781 26956 ft 483 kts 145°
2026-05-05 07:33 20.61699 -71.28584 26956 ft 482 kts 145°
2026-05-05 07:33 20.59053 -71.26360 26955 ft 482 kts 145°
2026-05-05 07:33 20.56416 -71.24146 26958 ft 482 kts 146°
2026-05-05 07:34 20.53800 -71.21952 26957 ft 482 kts 145°
2026-05-05 07:34 20.51154 -71.19733 26958 ft 482 kts 145°
2026-05-05 07:34 20.48507 -71.17513 26954 ft 481 kts 145°
2026-05-05 07:34 20.45899 -71.15328 26957 ft 481 kts 145°
2026-05-05 07:35 20.43246 -71.13106 26955 ft 481 kts 146°
2026-05-05 07:35 20.40612 -71.10900 26956 ft 481 kts 145°
2026-05-05 07:35 20.38002 -71.08717 26960 ft 481 kts 146°
2026-05-05 07:35 20.35362 -71.06509 26959 ft 480 kts 146°
2026-05-05 07:36 20.32721 -71.04300 26968 ft 480 kts 146°
2026-05-05 07:36 20.30118 -71.02125 26969 ft 480 kts 145°
2026-05-05 07:36 20.27494 -70.99934 26976 ft 480 kts 145°
2026-05-05 07:36 20.24853 -70.97729 26976 ft 480 kts 145°
2026-05-05 07:37 20.22218 -70.95529 26978 ft 479 kts 145°
2026-05-05 07:37 20.19588 -70.93336 26979 ft 479 kts 145°
2026-05-05 07:37 20.16967 -70.91151 26978 ft 479 kts 145°
2026-05-05 07:37 20.14346 -70.88966 26979 ft 479 kts 145°
2026-05-05 07:38 20.11750 -70.86803 26982 ft 479 kts 145°
2026-05-05 07:38 20.09129 -70.84621 26976 ft 479 kts 145°
2026-05-05 07:38 20.06498 -70.82431 26977 ft 479 kts 145°
2026-05-05 07:38 20.03868 -70.80242 26980 ft 479 kts 145°
2026-05-05 07:39 20.01241 -70.78058 26977 ft 479 kts 145°
2026-05-05 07:39 19.98609 -70.75870 26967 ft 479 kts 145°
2026-05-05 07:39 19.95980 -70.73686 26970 ft 479 kts 145°
2026-05-05 07:39 19.93361 -70.71510 26972 ft 479 kts 145°
2026-05-05 07:40 19.90735 -70.69331 26978 ft 479 kts 145°
2026-05-05 07:40 19.88104 -70.67147 26984 ft 478 kts 145°
2026-05-05 07:40 19.85485 -70.64974 26986 ft 478 kts 145°
2026-05-05 07:40 19.82863 -70.62801 26990 ft 478 kts 145°
2026-05-05 07:41 19.80244 -70.60630 27002 ft 478 kts 145°
2026-05-05 07:41 19.77628 -70.58463 27002 ft 478 kts 145°
2026-05-05 07:41 19.74954 -70.56390 27008 ft 475 kts 149°
2026-05-05 07:41 19.72175 -70.54473 27006 ft 475 kts 150°
2026-05-05 07:42 19.69395 -70.52580 27010 ft 475 kts 150°
2026-05-05 07:42 19.66604 -70.50678 27017 ft 475 kts 150°
2026-05-05 07:42 19.63817 -70.48779 27023 ft 475 kts 150°
2026-05-05 07:42 19.61030 -70.46881 27040 ft 474 kts 150°
2026-05-05 07:43 19.58252 -70.44989 27043 ft 474 kts 150°
2026-05-05 07:43 19.55478 -70.43101 27053 ft 474 kts 150°
2026-05-05 07:43 19.52698 -70.41208 27056 ft 474 kts 150°
2026-05-05 07:43 19.49927 -70.39323 27071 ft 474 kts 150°
2026-05-05 07:44 19.47158 -70.37438 27064 ft 474 kts 150°
2026-05-05 07:44 19.44386 -70.35554 27071 ft 474 kts 150°
2026-05-05 07:44 19.41607 -70.33664 27060 ft 474 kts 150°
2026-05-05 07:44 19.38833 -70.31780 27050 ft 474 kts 150°
2026-05-05 07:45 19.36046 -70.29886 27043 ft 474 kts 150°
2026-05-05 07:45 19.33295 -70.28011 26951 ft 476 kts 149°
2026-05-05 07:45 19.30469 -70.26038 26485 ft 488 kts 149°
2026-05-05 07:45 19.27616 -70.24037 25983 ft 492 kts 148°
2026-05-05 07:46 19.24774 -70.22043 25490 ft 486 kts 148°
2026-05-05 07:46 19.21981 -70.20084 25000 ft 479 kts 148°
2026-05-05 07:46 19.19228 -70.18156 24514 ft 474 kts 148°
2026-05-05 07:46 19.16502 -70.16248 24030 ft 468 kts 148°
2026-05-05 07:47 19.13824 -70.14336 23543 ft 463 kts 144°
2026-05-05 07:47 19.11311 -70.12179 23061 ft 458 kts 141°
2026-05-05 07:47 19.08900 -70.10024 22596 ft 454 kts 140°
2026-05-05 07:47 19.06515 -70.07888 22147 ft 449 kts 140°
2026-05-05 07:48 19.04126 -70.05751 21657 ft 446 kts 141°
2026-05-05 07:48 19.01797 -70.03670 21051 ft 443 kts 141°
2026-05-05 07:48 18.99448 -70.01572 20410 ft 432 kts 141°
2026-05-05 07:48 18.97196 -69.99562 19834 ft 420 kts 141°
2026-05-05 07:49 18.94991 -69.97594 19244 ft 409 kts 141°
2026-05-05 07:49 18.92846 -69.95682 18664 ft 399 kts 141°
2026-05-05 07:49 18.90696 -69.93922 18072 ft 389 kts 148°
2026-05-05 07:49 18.88461 -69.92389 17470 ft 381 kts 149°
2026-05-05 07:50 18.86255 -69.90899 16862 ft 373 kts 149°
2026-05-05 07:50 18.84070 -69.89424 16241 ft 366 kts 149°
2026-05-05 07:50 18.81959 -69.87999 15626 ft 360 kts 149°
2026-05-05 07:50 18.79880 -69.86595 15022 ft 354 kts 149°
2026-05-05 07:51 18.77824 -69.85207 14408 ft 349 kts 148°
2026-05-05 07:51 18.75792 -69.83837 13803 ft 343 kts 148°
2026-05-05 07:51 18.73815 -69.82503 13367 ft 332 kts 148°
2026-05-05 07:51 18.71901 -69.81211 12986 ft 322 kts 148°
2026-05-05 07:52 18.70038 -69.79955 12593 ft 312 kts 148°
2026-05-05 07:52 18.68231 -69.78737 12199 ft 304 kts 147°
2026-05-05 07:52 18.66467 -69.77548 11797 ft 297 kts 147°
2026-05-05 07:52 18.64743 -69.76387 11402 ft 291 kts 147°
2026-05-05 07:53 18.63053 -69.75249 11004 ft 287 kts 147°
2026-05-05 07:53 18.61359 -69.74109 10598 ft 286 kts 147°
2026-05-05 07:53 18.59731 -69.72941 10192 ft 283 kts 136°
2026-05-05 07:53 18.58570 -69.71298 9796 ft 283 kts 113°
2026-05-05 07:54 18.58150 -69.69268 9333 ft 283 kts 88°
2026-05-05 07:54 18.58566 -69.67275 8906 ft 281 kts 65°
2026-05-05 07:54 18.59722 -69.65642 8478 ft 281 kts 41°
2026-05-05 07:54 18.61414 -69.64652 8045 ft 283 kts 17°
2026-05-05 07:55 18.63373 -69.64484 7618 ft 284 kts 352°
2026-05-05 07:55 18.65289 -69.65029 7207 ft 284 kts 342°
2026-05-05 07:55 18.67158 -69.65738 6789 ft 283 kts 341°
2026-05-05 07:55 18.68902 -69.66663 6374 ft 284 kts 321°
2026-05-05 07:56 18.70128 -69.68276 5928 ft 287 kts 294°
2026-05-05 07:56 18.70546 -69.70300 5486 ft 286 kts 266°
2026-05-05 07:56 18.70064 -69.72304 5048 ft 284 kts 239°
2026-05-05 07:56 18.68786 -69.73869 4603 ft 279 kts 212°
2026-05-05 07:57 18.67042 -69.74728 4160 ft 275 kts 189°
2026-05-05 07:57 18.65181 -69.74783 3978 ft 261 kts 170°
2026-05-05 07:57 18.63472 -69.74400 3957 ft 245 kts 162°
2026-05-05 07:57 18.61876 -69.73881 3967 ft 231 kts 160°
2026-05-05 07:58 18.60391 -69.73347 3965 ft 220 kts 159°
2026-05-05 07:58 18.58940 -69.72818 3971 ft 218 kts 159°
2026-05-05 07:58 18.57509 -69.72299 3972 ft 218 kts 159°
2026-05-05 07:58 18.56067 -69.71767 3971 ft 218 kts 159°
2026-05-05 07:59 18.54606 -69.71223 3899 ft 222 kts 159°
2026-05-05 07:59 18.53133 -69.70676 3530 ft 227 kts 159°
2026-05-05 07:59 18.51671 -69.70132 3139 ft 218 kts 159°
2026-05-05 07:59 18.50218 -69.69618 2491 ft 226 kts 159°
2026-05-05 08:00 18.48736 -69.69070 1879 ft 229 kts 157°
2026-05-05 08:00 18.47262 -69.68461 1664 ft 222 kts 157°
2026-05-05 08:00 18.45855 -69.67927 1696 ft 208 kts 159°
2026-05-05 08:00 18.44440 -69.67425 1822 ft 217 kts 161°
2026-05-05 08:01 18.42965 -69.66951 2059 ft 228 kts 162°
2026-05-05 08:01 18.41394 -69.66479 2274 ft 237 kts 161°
2026-05-05 08:01 18.39786 -69.65945 2260 ft 235 kts 160°
2026-05-05 08:01 18.38272 -69.65435 2280 ft 227 kts 160°
2026-05-05 08:02 18.36756 -69.64902 2104 ft 226 kts 153°
2026-05-05 08:02 18.35484 -69.64017 2109 ft 217 kts 134°
2026-05-05 08:02 18.34623 -69.62746 1972 ft 218 kts 113°
2026-05-05 08:02 18.34335 -69.61221 2029 ft 212 kts 90°
2026-05-05 08:03 18.34686 -69.59698 1955 ft 218 kts 65°
2026-05-05 08:03 18.35663 -69.58470 1981 ft 220 kts 40°
2026-05-05 08:03 18.37061 -69.57764 1928 ft 228 kts 16°
2026-05-05 08:03 18.38633 -69.57687 2068 ft 228 kts 355°
2026-05-05 08:04 18.40226 -69.58020 2036 ft 235 kts 349°
2026-05-05 08:04 18.41815 -69.58447 2075 ft 237 kts 346°
2026-05-05 08:04 18.43396 -69.58971 2115 ft 237 kts 342°
2026-05-05 08:04 18.44977 -69.59568 2082 ft 239 kts 342°
2026-05-05 08:05 18.46512 -69.60166 2220 ft 235 kts 340°
2026-05-05 08:05 18.48032 -69.60826 2237 ft 235 kts 339°
2026-05-05 08:05 18.49574 -69.61440 2232 ft 237 kts 342°
2026-05-05 08:05 18.51136 -69.61989 2304 ft 233 kts 343°
2026-05-05 08:06 18.52665 -69.62478 2432 ft 230 kts 347°
2026-05-05 08:06 18.54228 -69.62901 2525 ft 230 kts 347°
2026-05-05 08:06 18.55774 -69.63332 2663 ft 228 kts 348°
2026-05-05 08:06 18.57342 -69.63711 2724 ft 229 kts 350°
2026-05-05 08:07 18.58897 -69.64053 2771 ft 233 kts 349°
2026-05-05 08:07 18.60497 -69.64442 2812 ft 234 kts 349°
2026-05-05 08:07 18.62083 -69.64842 2912 ft 234 kts 349°
2026-05-05 08:07 18.63669 -69.65107 3179 ft 220 kts
2026-05-05 08:08 18.65163 -69.64803 3207 ft 218 kts 26°
2026-05-05 08:08 18.66427 -69.63963 3132 ft 220 kts 51°
2026-05-05 08:08 18.67154 -69.62617 3171 ft 215 kts 69°
2026-05-05 08:08 18.67769 -69.61110 2958 ft 228 kts 69°
2026-05-05 08:09 18.68311 -69.59580 3159 ft 216 kts 86°
2026-05-05 08:09 18.68084 -69.58086 3260 ft 209 kts 117°
2026-05-05 08:09 18.67162 -69.56898 3236 ft 212 kts 144°
2026-05-05 08:09 18.65757 -69.56373 3194 ft 219 kts 174°
2026-05-05 08:10 18.64261 -69.56683 3237 ft 224 kts 202°
2026-05-05 08:10 18.63043 -69.57730 3179 ft 235 kts 234°
2026-05-05 08:10 18.62513 -69.59350 3245 ft 239 kts 263°
2026-05-05 08:10 18.62401 -69.61092 3312 ft 239 kts 264°
2026-05-05 08:11 18.62286 -69.62856 3332 ft 240 kts 263°
2026-05-05 08:11 18.62133 -69.64616 3233 ft 246 kts 262°
2026-05-05 08:11 18.61945 -69.66402 3240 ft 246 kts 261°
2026-05-05 08:11 18.61748 -69.68188 3364 ft 238 kts 257°
2026-05-05 08:12 18.61394 -69.69865 3154 ft 236 kts 256°
2026-05-05 08:12 18.61041 -69.71536 3001 ft 227 kts 249°
2026-05-05 08:12 18.60197 -69.72797 2889 ft 208 kts 213°
2026-05-05 08:12 18.58878 -69.73367 2569 ft 202 kts 183°
2026-05-05 08:13 18.57528 -69.73177 2312 ft 195 kts 156°
2026-05-05 08:13 18.56396 -69.72491 2006 ft 184 kts 144°
2026-05-05 08:13 18.55333 -69.71748 1631 ft 183 kts 147°
2026-05-05 08:13 18.54236 -69.71086 1349 ft 179 kts 151°
2026-05-05 08:14 18.53121 -69.70537 1309 ft 171 kts 156°
2026-05-05 08:14 18.52021 -69.70126 1266 ft 164 kts 161°
2026-05-05 08:14 18.50905 -69.69799 1071 ft 170 kts 161°
2026-05-05 08:14 18.49795 -69.69418 960 ft 168 kts 159°
2026-05-05 08:15 18.48681 -69.68986 826 ft 169 kts 157°
2026-05-05 08:15 18.47603 -69.68563 792 ft 163 kts 159°
2026-05-05 08:15 18.46501 -69.68162 564 ft 168 kts 160°
2026-05-05 08:15 18.45415 -69.67789 316 ft 159 kts 160°
2026-05-05 08:16 18.44404 -69.67418 97 ft 149 kts 160°
2026-05-05 08:16 18.43502 -69.67088 70 ft 118 kts 160°
2026-05-05 08:16 18.42823 -69.66836 77 ft 88 kts 162°
2026-05-05 08:16 18.42365 -69.66664 77 ft 35 kts 161°
2026-05-05 08:17 18.42235 -69.66659 78 ft 8 kts 228°
2026-05-05 08:17 18.42223 -69.66732 76 ft 11 kts 276°
2026-05-05 08:17 18.42260 -69.66821 74 ft 15 kts 313°
2026-05-05 08:17 18.42372 -69.66881 73 ft 19 kts 342°
2026-05-05 08:18 18.42504 -69.66918 73 ft 19 kts 346°
2026-05-05 08:18 18.42642 -69.66963 72 ft 23 kts 341°
2026-05-05 08:18 18.42812 -69.67035 70 ft 23 kts 340°
2026-05-05 08:18 18.42939 -69.67115 69 ft 20 kts 291°
2026-05-05 08:19 18.42959 -69.67262 64 ft 12 kts 271°
2026-05-05 08:19 18.42973 -69.67368 61 ft 16 kts 293°
2026-05-05 08:19 18.43054 -69.67442 59 ft 16 kts 337°
2026-05-05 08:19 18.43128 -69.67475 59 ft 9 kts 338°
2026-05-05 08:20 18.43156 -69.67498 58 ft 4 kts 278°
2026-05-05 08:20 18.43157 -69.67515 58 ft 4 kts 272°
2026-05-05 08:20 18.43152 -69.67553 57 ft 4 kts 259°
2026-05-05 08:20 18.43150 -69.67564 57 ft 0 kts 260°